Location: The Saddle
(36.8333°N, 80.3417°W)
Time: 10:54:34
(UTC-05:00)

A-11 Canister half - Pass Details

Date: 14 December 2023
Orbit: 1514 x 1685 km, 47.2° (Epoch: 04 November)

Event Time Altitude Azimuth Distance (km) Brightness Sun altitude
Rises 05:34:01 0° 300° (WNW) 4,851 - -21.7°
Reaches altitude 10° 05:37:21 10° 293° (WNW) 3,884 - -21.1°
Exits shadow 05:41:57 28° 274° (W) 2,755 9.7 -20.2°
Maximum altitude 05:46:22 40° 228° (SW) 2,285 9.6 -19.3°
Drops below altitude 10° 05:55:33 10° 163° (SSE) 3,939 11.6 -17.5°
Sets 05:58:58 0° 156° (SSE) 4,925 12.3 -16.9°
